Results By Division


Marshman® Triathlon Presented by Kinetic PT

Race Date: Sunday September 20, 2009
Description: 1/4 Mile Swim~12.5 Mile Bike~2 Mile Run
Race Category: Triathlon
# Entrants in Division: 46

Choose:
 Division
Place
Overall
Place
NameCityStateRace AgeGenderDivisionTimeBib#
View 1 9 Reid, James West Chester PA 48 M 45-49 0:59:50 303
View 2 22 Fritsche, Todd Phoenixville PA 49 M 45-49 1:02:49 270
View 3 35 Parker, Kevin Radnor PA 45 M 45-49 1:04:28 292
View 4 48 Hoy, Sebastian Coatesville PA 46 M 45-49 1:05:56 300
View 5 57 Gossow, Richard Wayne PA 45 M 45-49 1:06:23 305
View 6 84 Kelly, Stephen West Chester PA 45 M 45-49 1:09:15 280
View 7 90 Kallmeyer, Mike Radnor PA 49 M 45-49 1:09:59 288
View 8 92 Silvera, David Bryn Mawr PA 45 M 45-49 1:10:21 308
View 9 99 Kramer, Andy St. Davids PA 46 M 45-49 1:11:15 302
View 10 107 Burd, Russell East Greenville PA 45 M 45-49 1:11:22 263
View 11 123 Elmer, Jim Reinholds PA 49 M 45-49 1:12:32 296
View 12 130 Segner, Greg Pottstown PA 46 M 45-49 1:12:59 297
View 13 144 Kramer, John Chester Springs PA 45 M 45-49 1:13:34 268
View 14 145 Frees, Robb Phoenixville PA 47 M 45-49 1:13:35 266
View 15 152 Luscombe, Dana Harleysville PA 46 M 45-49 1:14:01 295
View 16 157 Schauer, Tim Mohnton PA 49 M 45-49 1:14:23 262
View 17 162 Mell, Larry Lake Ariel PA 49 M 45-49 1:14:30 306
View 18 174 Amrein, John Downingtown PA 45 M 45-49 1:14:49 282
View 19 177 Schmack, Stu Montoursville PA 45 M 45-49 1:14:52 294
View 20 184 Koningstein, Maurice Cheyney PA 49 M 45-49 1:15:05 276
View 21 219 Clark, Richard West Chester PA 45 M 45-49 1:16:57 311
View 22 222 Zangardi, Peter Collegeville PA 45 M 45-49 1:17:03 279
View 23 224 Mills, Steve Garnet Valley PA 45 M 45-49 1:17:13 284
View 24 225 Rizol, Jim Lansdale PA 46 M 45-49 1:17:14 269
View 25 231 Brady, Kevin Glenmoore PA 45 M 45-49 1:17:28 289
View 26 250 Kukwa, Rick West Chester PA 47 M 45-49 1:18:39 274
View 27 253 Galligan, Ed Glenmoore PA 47 M 45-49 1:19:07 301
View 28 262 Helm, Rick Doylestown PA 46 M 45-49 1:19:35 272
View 29 277 Hunter, Andrew Fleetwood PA 49 M 45-49 1:20:08 283
View 30 285 Glah, Ken West Chester PA 46 M 45-49 1:20:36 765
View 31 290 Picardi, Kenn Pottstown PA 49 M 45-49 1:20:51 291
View 32 334 Lamastra, Carl Gilbertsville PA 45 M 45-49 1:23:10 264
View 33 343 Martin Jr, John New Holland PA 46 M 45-49 1:23:30 267
View 34 348 West, David Quakertown PA 49 M 45-49 1:23:44 307
View 35 373 Mccabe, James Mount Laurel NJ 47 M 45-49 1:25:24 309
View 36 377 Salamone, John Pottstown PA 49 M 45-49 1:25:52 298
View 37 387 Burhop, Jerry Havertown PA 45 M 45-49 1:26:30 275
View 38 423 Winoski, David Havertown PA 48 M 45-49 1:28:50 290
View 39 429 Duscha, Kevin Columbia PA 45 M 45-49 1:29:27 281
View 40 452 Supplee, Bob Downingtown PA 47 M 45-49 1:30:20 273
View 41 455 Oates, Kirk Downingtown PA 46 M 45-49 1:30:23 293
View 42 532 Kirk, Tom Chester Springs PA 49 M 45-49 1:38:07 310
View 43 571 Hutton, Gary Southampton PA 46 M 45-49 1:41:45 287
View 44 614 Fowler, Don Glen Mills PA 47 M 45-49 1:49:17 271
View 45 617 Maneri, James Wayne PA 45 M 45-49 1:49:40 286
View 46 649 Fiorilla, Leslie Malvern PA 46 M 45-49 2:06:21 277